Weather History for False Pass, AK

Change the Weather History Date:

Saturday, November 2, 2013

  Actual Average (PACD) Record (PACD)
Temperature  
Mean Temperature 48 °F 37 °F  
Max Temperature 44 °F 41 °F 53 °F (2003)
Min Temperature 44 °F 32 °F 20 °F (1975)
Degree Days  
Heating Degree Days 17 28  
Month to date heating degree days 56  
Since 1 July heating degree days 2169  
Cooling Degree Days 0    
Month to date cooling degree days  
Year to date cooling degree days  
Moisture  
Dew Point 43 °F    
Average Humidity 84    
Maximum Humidity 93    
Minimum Humidity 69    
Precipitation  
Precipitation 0.80 in 0.15 in 1.09 in (1994)
Month to date precipitation 0.31  
Year to date precipitation 32.54  
Snow  
Snow 0.00 in 0.20 in 1.30 in (1982)
Month to date snowfall 0.4  
Since 1 July snowfall 2.8  
Since 1 September snowfall 2.8  
Snow Depth -    
Sea Level Pressure  
Sea Level Pressure 29.51 in    
Wind  
Wind Speed 22 mph (SSE)    
Max Wind Speed 37 mph    
Max Gust Speed 62 mph    
Visibility 7 miles    
Events Rain    
T = Trace of Precipitation, MM = Missing Value Source: NWS Daily Summary

Daily Weather History Graph

Daily Weather History Graph

Search for Another Location

Airport:

Trip Planner

Search our weather history database for the weather conditions in past years. The results will help you decide how hot, cold, wet, or windy it might be!

Date:

Astronomy

Nov. 02, 2013 Rise Set
Actual Time 8:59 AM HADT 6:13 PM HADT
Civil Twilight 8:21 AM HADT 6:52 PM HADT
Nautical Twilight 7:38 AM HADT 7:35 PM HADT
Astronomical Twilight 6:56 AM HADT 8:16 PM HADT
Moon 8:06 AM HADT (11/2) 5:54 PM HADT (11/2)
Length of Visible Light 10h 30m
Length of Day
9h 13m
Waning Crescent, 1% of the Moon is Illuminated
Nov 2
Waning Crescent
Nov 3
New
Nov 9
First Quarter
Nov 17
Full
Nov 25
Last Quarter

Hourly Weather History & Observations

Time (HADT) Temp. Windchill Dew Point Humidity Pressure Visibility Wind Dir Wind Speed Gust Speed Precip Events Conditions
12:01 AM 48.0 °F - 45.0 °F 89% 29.65 in 5.0 mi SE 19.6 mph 32.2 mph 0.09 in Rain Light Rain
12:15 AM 48.2 °F - 44.6 °F 87% 29.38 in 7.0 mi SE 26.5 mph 39.1 mph 0.02 in Rain Light Rain
1:01 AM 46.9 °F - 43.0 °F 86% 29.63 in 4.0 mi SSE 31.1 mph 48.3 mph 0.03 in Rain Light Rain
2:01 AM 46.0 °F 36.5 °F 42.1 °F 86% 29.59 in 3.0 mi SSE 31.1 mph 49.5 mph 0.07 in Rain Rain
2:42 AM 46.4 °F 36.5 °F 42.8 °F 87% 29.29 in 3.0 mi South 34.5 mph 50.6 mph 0.13 in Rain Light Rain
2:52 AM 46.4 °F 37.9 °F 42.8 °F 87% 29.30 in 3.0 mi SE 25.3 mph 36.8 mph 0.14 in Rain Light Rain
2:59 AM 46.4 °F 37.7 °F 44.6 °F 93% 29.31 in 3.0 mi SSE 26.5 mph 46.0 mph 0.15 in Rain Rain
3:01 AM 46.9 °F - 43.0 °F 86% 29.59 in 3.0 mi SSE 28.8 mph 46.0 mph 0.15 in Rain Light Rain
3:10 AM 46.4 °F 36.3 °F 42.8 °F 87% 29.30 in 3.0 mi SE 36.8 mph 55.2 mph 0.01 in Rain Light Rain
3:24 AM 46.4 °F 36.3 °F 42.8 °F 87% 29.29 in 2.5 mi SSE 36.8 mph 54.1 mph 0.02 in Rain Light Rain
3:42 AM 46.4 °F 37.0 °F 42.8 °F 87% 29.28 in 3.0 mi SSE 31.1 mph 48.3 mph 0.03 in Rain Light Rain
4:01 AM 46.9 °F - 43.0 °F 86% 29.53 in 3.0 mi SSE 32.2 mph 62.1 mph 0.05 in Rain Rain
5:01 AM 46.0 °F 37.0 °F 42.1 °F 86% 29.55 in 5.0 mi SE 27.6 mph 47.2 mph 0.10 in Rain Rain
5:47 AM 46.4 °F 36.4 °F 42.8 °F 87% 29.25 in 4.0 mi SSE 35.7 mph 51.8 mph 0.12 in Rain Rain
6:01 AM 46.0 °F 36.9 °F 43.0 °F 89% 29.53 in 5.0 mi SSE 28.8 mph 42.6 mph 0.17 in Rain Rain
7:01 AM 46.9 °F - 43.0 °F 86% 29.54 in 3.0 mi SSE 20.7 mph 39.1 mph 0.17 in Rain Rain
8:01 AM 46.9 °F - 43.0 °F 86% 29.54 in 5.0 mi SSE 19.6 mph 38.0 mph 0.05 in Rain Light Rain
9:01 AM 48.2 °F - 42.8 °F 82% 29.29 in 10.0 mi SSE 11.5 mph 25.3 mph 0.01 in Rain Light Rain
9:53 AM 48.2 °F - 42.8 °F 82% 29.31 in 7.0 mi SSE 18.4 mph 36.8 mph 0.01 in Rain Light Rain
10:01 AM 48.2 °F - 42.8 °F 82% 29.32 in 9.0 mi SSE 20.7 mph 31.1 mph 0.01 in Rain Light Rain
10:12 AM 48.2 °F - 42.8 °F 82% 29.34 in 10.0 mi SSE 19.6 mph 29.9 mph 0.01 in   Overcast
11:01 AM 48.9 °F - 43.0 °F 80% 29.64 in 10.0 mi SSE 13.8 mph 20.7 mph 0.01 in Rain Light Rain
11:13 AM 48.2 °F - 42.8 °F 82% 29.37 in 10.0 mi SSE 17.3 mph 23.0 mph 0.00 in Rain Light Rain
11:35 AM 50.0 °F - 42.8 °F 76% 29.37 in 10.0 mi ESE 11.5 mph 28.8 mph 0.00 in   Overcast
12:01 PM 51.1 °F - 43.0 °F 74% 29.67 in 10.0 mi SSW 8.1 mph 25.3 mph 0.00 in   Mostly Cloudy
1:01 PM 52.0 °F - 43.0 °F 71% 29.69 in 10.0 mi Variable 6.9 mph 21.9 mph N/A   Overcast
2:01 PM 51.8 °F - 44.6 °F 76% 29.44 in 10.0 mi South 10.4 mph - N/A   Overcast
2:09 PM 51.8 °F - 42.8 °F 71% 29.44 in 10.0 mi SSE 8.1 mph 24.2 mph N/A   Overcast
3:01 PM 50.0 °F - 42.8 °F 76% 29.46 in 10.0 mi SSE 11.5 mph 17.3 mph N/A   Mostly Cloudy
4:01 PM 52.0 °F - 42.1 °F 69% 29.75 in 10.0 mi South 5.8 mph - N/A   Scattered Clouds
4:53 PM 48.2 °F - 42.8 °F 82% 29.48 in 8.0 mi SE 12.7 mph - N/A   Mostly Cloudy
5:01 PM 48.0 °F - 43.0 °F 83% 29.76 in 9.0 mi SE 15.0 mph 19.6 mph N/A   Overcast
6:01 PM 46.4 °F 40.1 °F 42.8 °F 87% 29.51 in 10.0 mi SSE 15.0 mph 21.9 mph N/A   Mostly Cloudy
7:01 PM 46.9 °F - 42.1 °F 83% 29.79 in 10.0 mi NNW 3.5 mph - N/A   Overcast
8:01 PM 46.0 °F 43.1 °F 43.0 °F 89% 29.80 in 10.0 mi NW 5.8 mph - N/A   Overcast
9:01 PM 46.0 °F 39.6 °F 42.1 °F 86% 29.79 in 10.0 mi ESE 15.0 mph 19.6 mph N/A   Overcast
10:01 PM 45.0 °F 37.6 °F 41.0 °F 86% 29.78 in 10.0 mi SE 17.3 mph 23.0 mph N/A   Mostly Cloudy
10:27 PM 44.6 °F 36.9 °F 41.0 °F 87% 29.50 in 10.0 mi SSE 18.4 mph 28.8 mph N/A   Overcast
10:37 PM 44.6 °F 37.8 °F 41.0 °F 87% 29.49 in 10.0 mi SSE 15.0 mph 31.1 mph N/A   Mostly Cloudy
10:57 PM 44.6 °F 36.4 °F 41.0 °F 87% 29.48 in 10.0 mi South 20.7 mph 28.8 mph N/A   Partly Cloudy
11:01 PM 45.0 °F 37.1 °F 41.0 °F 86% 29.76 in 10.0 mi SSE 19.6 mph 28.8 mph N/A   Partly Cloudy